Moose, Wyoming, United States (83012)
Lat: 43.66N, Lon: 110.72W
Wx Zone: WYZ013
Local Info
Past Weather Observations for Monday, January 26, 2015

NOTE: This archive is for the closest National Weather Service station to Moose. Information may differ from the station used for current weather conditions.

Click here for Long-term Archive

Time Weather Temperature Dewpoint Humidity Pressure Winds Precip Visibility
23:55
Clear
10°F / -12°C 10°F / -12°C 100% 30.33 in
(1027 mb)
N 10.4 mph
(N 17 kph)
- 10SM
23:35
Clear
10°F / -12°C 10°F / -12°C 100% 30.33 in
(1027 mb)
N 10.4 mph
(N 17 kph)
- 10SM
23:15
Clear
10°F / -12°C 10°F / -12°C 100% 30.33 in
(1027 mb)
N 10.4 mph
(N 17 kph)
- 10SM
22:55
Clear
12°F / -11°C 12°F / -11°C 100% 30.33 in
(1027 mb)
N 5.8 mph
(N 9 kph)
- 10SM
22:35
Clear
12°F / -11°C 10°F / -12°C 92% 30.33 in
(1027 mb)
N 6.9 mph
(N 11 kph)
- 10SM
22:15
Clear
12°F / -11°C 12°F / -11°C 100% 30.33 in
(1027 mb)
NNE 4.6 mph
(NNE 7 kph)
- 10SM
21:55
Clear
16°F / -9°C 16°F / -9°C 100% 30.33 in
(1027 mb)
NE 6.9 mph
(NE 11 kph)
- 10SM
21:35
Clear
16°F / -9°C 14°F / -10°C 93% 30.3 in
(1026 mb)
NE 4.6 mph
(NE 7 kph)
- 10SM
21:15
Clear
14°F / -10°C 14°F / -10°C 100% 30.3 in
(1026 mb)
N 9.2 mph
(N 15 kph)
- 10SM
20:55
Clear
16°F / -9°C 14°F / -10°C 93% 30.33 in
(1027 mb)
N 10.4 mph
(N 17 kph)
- 10SM
19:54
Clear
16°F / -9°C 16°F / -9°C 100% 30.33 in
(1027 mb)
NNW 8.1 mph
(NNW 13 kph)
- 10SM
18:58
Clear
19°F / -7°C 19°F / -7°C 100% 30.33 in
(1027 mb)
Calm - 10SM
17:54
Clear
21°F / -6°C 21°F / -6°C 100% 30.33 in
(1027 mb)
Calm - 10SM
16:51
Clear
21°F / -6°C 23°F / -5°C N/A 30.33 in
(1027 mb)
Calm - 10SM
16:05
Clear
Fog And Mist
25°F / -4°C 23°F / -5°C 93% 30.33 in
(1027 mb)
Calm - 10SM
15:51
Overcast
Fog
25°F / -4°C 25°F / -4°C 100% 30.33 in
(1027 mb)
SE 4.6 mph
(SE 7 kph)
- 1/4SM
15:10
Overcast
Fog
25°F / -4°C 23°F / -5°C 93% 30.33 in
(1027 mb)
Calm - 1SM
14:51
Mostly Cloudy
Fog And Mist
25°F / -4°C 23°F / -5°C 93% 30.36 in
(1028 mb)
Calm - 3SM
13:51
Overcast
25°F / -4°C 25°F / -4°C 100% 30.39 in
(1029 mb)
Calm - 2 1/2SM
12:51
Overcast
Fog And Mist
25°F / -4°C 23°F / -5°C 93% 30.42 in
(1030 mb)
Calm - 2 1/2SM
12:23
Overcast
Fog And Mist
25°F / -4°C 23°F / -5°C 93% 30.42 in
(1030 mb)
Calm - 1 1/2SM
11:51
Overcast
25°F / -4°C 25°F / -4°C 100% 30.45 in
(1031 mb)
Calm - 10SM
10:51
Overcast
25°F / -4°C 23°F / -5°C 93% 30.48 in
(1032 mb)
Calm - 10SM
09:51
Overcast
25°F / -4°C 25°F / -4°C 100% 30.48 in
(1032 mb)
NNW 5.8 mph
(NNW 9 kph)
- 10SM
08:50
Overcast
Fog And Mist
25°F / -4°C 25°F / -4°C 100% 30.48 in
(1032 mb)
Variable 5.8 mph
(Variable 9 kph)
- 3SM
08:14
Overcast
Fog And Mist
25°F / -4°C 25°F / -4°C 100% 30.48 in
(1032 mb)
Calm - 3SM
07:49
Overcast
Fog And Mist
25°F / -4°C 25°F / -4°C 100% 30.48 in
(1032 mb)
Calm - 2SM
07:14
Overcast
Fog And Mist
25°F / -4°C 25°F / -4°C 100% 30.48 in
(1032 mb)
Calm - 1SM
06:50
Overcast
Fog And Mist
25°F / -4°C 23°F / -5°C 93% 30.48 in
(1032 mb)
Calm - 1 3/4SM
06:35
Overcast
25°F / -4°C 25°F / -4°C 100% 30.48 in
(1032 mb)
Calm - 1 1/4SM
06:15
Overcast
23°F / -5°C 23°F / -5°C 100% 30.48 in
(1032 mb)
Calm - 1 1/4SM
05:55
Overcast
25°F / -4°C 25°F / -4°C 100% 30.45 in
(1031 mb)
Calm - 4SM
05:35
Overcast
23°F / -5°C 21°F / -6°C 93% 30.45 in
(1031 mb)
Calm - 9SM
05:15
Overcast
25°F / -4°C 23°F / -5°C 93% 30.45 in
(1031 mb)
Calm - 4SM
04:55
Overcast
25°F / -4°C 23°F / -5°C 93% 30.45 in
(1031 mb)
Calm - 5SM
04:35
Overcast
25°F / -4°C 25°F / -4°C 100% 30.45 in
(1031 mb)
Calm - 2SM
04:15
Overcast
25°F / -4°C 23°F / -5°C 93% 30.45 in
(1031 mb)
Calm - 1/2SM
03:55
Overcast
23°F / -5°C 21°F / -6°C 93% 30.45 in
(1031 mb)
Calm - 1/4SM
03:35
Overcast
21°F / -6°C 21°F / -6°C 100% 30.45 in
(1031 mb)
Calm - 1/4SM
03:15
Overcast
21°F / -6°C 21°F / -6°C 100% 30.45 in
(1031 mb)
NE 3.5 mph
(NE 6 kph)
- 3/4SM
02:55
Overcast
25°F / -4°C 25°F / -4°C 100% 30.48 in
(1032 mb)
N 5.8 mph
(N 9 kph)
- 1/4SM
02:35
Overcast
25°F / -4°C 25°F / -4°C 100% 30.45 in
(1031 mb)
N 5.8 mph
(N 9 kph)
- 1 1/2SM
02:15
Overcast
27°F / -3°C 27°F / -3°C 100% 30.45 in
(1031 mb)
NE 4.6 mph
(NE 7 kph)
- 1 1/2SM
01:55
Overcast
25°F / -4°C 25°F / -4°C 100% 30.45 in
(1031 mb)
Calm - 3/4SM
01:35
Overcast
25°F / -4°C 25°F / -4°C 100% 30.45 in
(1031 mb)
N 4.6 mph
(N 7 kph)
- 3/4SM
01:15
Overcast
25°F / -4°C 25°F / -4°C 100% 30.45 in
(1031 mb)
NE 3.5 mph
(NE 6 kph)
- 7SM
00:55
Overcast
25°F / -4°C 25°F / -4°C 100% 30.45 in
(1031 mb)
Calm - 10SM
00:35
Overcast
27°F / -3°C 27°F / -3°C 100% 30.45 in
(1031 mb)
Calm - 10SM
00:15
Overcast
25°F / -4°C 25°F / -4°C 100% 30.45 in
(1031 mb)
NE 3.5 mph
(NE 6 kph)
- 2SM
Time Weather Temperature Dewpoint Humidity Pressure Winds Precip Visibility


Weather for websites

WeatherForYou.com, LLC is not responsible for any damages or problems caused by this service. Current weather conditions are obtained from the closest station including government and personal stations which may have varying degrees of accuracy. Weather forecasts are derived from the NOAA NDFD. Like all things, this site belongs to Jesus Christ... He just trusts me to maintain it. If you have any questions or comments email webmaster@weatherforyou.com

Copyright © 2015, WeatherForYou.com LLC. All rights reserved.